Location: North Runcton
(52.7000°N, 0.4333°E)
Time: 06:06:41
(UTC+00:00)

Cosmos 1980 Rocket - Pass Details

Date: 19 May 2025
Orbit: 829 x 847 km, 71.0° (Epoch: 18 June)

Event Time Altitude Azimuth Distance (km) Brightness Sun altitude
Rises 20:43:50 0° 329° (NNW) 3,384 7.3 -6.4°
Reaches altitude 10° 20:46:22 10° 335° (NNW) 2,448 6.0 -6.7°
Maximum altitude 20:51:48 48° 50° (NE) 1,077 2.8 -7.2°
Drops below altitude 10° 20:57:12 10° 125° (SE) 2,440 4.0 -7.8°
Enters shadow 20:57:29 - 125° (SE) 2,540 4.1 -7.8°
